Home > Weather > Minsk > Past weeks

Flag for Belarus Weather for the Past 2 Weeks in Minsk, Belarus

Now
32 °F

Sprinkles. Low clouds.


Feels Like: 22 °F
Forecast: 33 / 36 °F
Wind: 13 mph from Southeast

Location: Minsk

Current Time: Feb 12, 2016 at 12:57:40 AM

Latest Report: Feb 12, 2016 at 12:00 AM


Visibility: 3 mi

Pressure: 29.33 "Hg

Humidity: 100%

Dew point: 32 °F

Location of MinskLocation

Historic Weather in Minsk — Graph

°F

Minsk Temperature Yesterday

Maximum temperature yesterday: 39 °F (at 1:30 AM)
Minimum temperature yesterday: 32 °F (at 3:30 PM)
Average temperature yesterday: 34 °F

High & Low Weather Summary for the Past Weeks

 TemperatureHumidityPressure
High45 °F (Feb 2, 3:30 PM)100% (Jan 27, 11:00 PM)30.18 "Hg (Jan 27, 11:00 PM)
Low28 °F (Feb 8, 6:30 AM)60% (Feb 6, 2:00 PM)29.33 "Hg (Feb 11, 6:30 PM)
Average36 °F85%29.73 "Hg
* Reported Jan 27 11:00 PM — Feb 11 11:30 PM, Minsk, Weather by CustomWeather, © 2016

Note: Actual official high and low records may vary slightly from our data, if they occured in-between our weather recording intervals... More about our weather records

Advertising

Minsk Weather History for the Previous 24 Hours

 ConditionsComfort  
Time TempWeatherWind HumidityBarometerVisibility
11:30 PM
Thu, Feb 11
32 °FSprinkles. Low clouds.10 mph100%29.33 "Hg3 mi
11:04 PM32 °FSprinkles. Low clouds.13 mph100%29.33 "Hg1 mi
10:54 PM32 °FSprinkles. Low clouds.13 mph100%29.33 "Hg3 mi
10:30 PM32 °FSprinkles. Low clouds.15 mph100%29.33 "Hg4 mi
10:00 PM32 °FLow clouds.13 mph100%29.33 "HgN/A
9:30 PM32 °FLow clouds.13 mph100%29.33 "HgN/A
9:00 PM32 °FSprinkles. Ice fog.13 mph100%29.33 "Hg2 mi
8:56 PM32 °FSprinkles. Ice fog.13 mph100%29.33 "Hg2 mi
8:30 PM32 °FSprinkles. Mostly cloudy.15 mph100%29.33 "Hg6 mi
8:00 PM32 °FSprinkles. Mostly cloudy.15 mph100%29.33 "Hg4 mi
7:30 PM32 °FSprinkles. Ice fog.15 mph100%29.33 "Hg3 mi
7:04 PM32 °FSprinkles. Ice fog.17 mph100%29.33 "Hg2 mi
6:30 PM32 °FSprinkles. Ice fog.17 mph100%29.33 "Hg2 mi
6:00 PM32 °FSprinkles. Ice fog.17 mph100%29.36 "Hg1 mi
5:51 PM32 °FSprinkles. Ice fog.17 mph100%29.36 "Hg2 mi
5:30 PM32 °FSprinkles. Ice fog.17 mph100%29.36 "Hg3 mi
4:30 PM32 °FSprinkles. Ice fog.17 mph100%29.36 "Hg1 mi
4:00 PM32 °FRain showers. Ice fog.20 mph100%29.36 "Hg1 mi
3:55 PM32 °FRain showers. Ice fog.20 mph100%29.36 "Hg1 mi
3:30 PM32 °FSprinkles. Ice fog.20 mph100%29.36 "Hg2 mi
3:01 PM34 °FSprinkles. Fog.20 mph93%29.36 "Hg1 mi
2:04 PM34 °FSprinkles. Fog.22 mph93%29.36 "Hg2 mi
1:30 PM34 °FSprinkles. Fog.20 mph93%29.39 "Hg2 mi
1:00 PM34 °FSprinkles. Fog.20 mph93%29.39 "Hg1 mi
12:30 PM34 °FSprinkles. Mostly cloudy.22 mph93%29.39 "Hg1 mi
12:00 PM34 °FLight rain. Low clouds.22 mph93%29.39 "Hg3 mi
11:30 AM34 °FLight rain. Low clouds.20 mph100%29.39 "Hg2 mi
11:00 AM34 °FSprinkles. Mostly cloudy.20 mph100%29.42 "Hg2 mi
10:45 AM34 °FSprinkles. Mostly cloudy.20 mph100%29.39 "Hg1 mi
10:30 AM34 °FSprinkles. Mostly cloudy.20 mph100%29.39 "Hg1 mi
10:00 AM34 °FSprinkles. Mostly cloudy.20 mph100%29.39 "HgN/A
9:30 AM36 °FSprinkles. Mostly cloudy.17 mph93%29.39 "Hg6 mi
9:00 AM36 °FLight rain. Low clouds.20 mph93%29.39 "Hg6 mi
8:30 AM36 °FLight rain. Low clouds.20 mph100%29.39 "Hg5 mi
8:00 AM37 °FLight rain. Low clouds.20 mph93%29.39 "HgN/A
7:30 AM37 °FLight rain. Low clouds.20 mph93%29.39 "Hg6 mi
7:02 AM37 °FLight rain. Fog.20 mph93%29.39 "Hg1 mi
6:30 AM37 °FLight rain. Low clouds.20 mph93%29.39 "Hg4 mi
6:00 AM37 °FLight rain. Low clouds.20 mph93%29.39 "Hg5 mi
5:30 AM37 °FLight rain. Low clouds.20 mph93%29.39 "HgN/A
5:00 AM37 °FLight rain. Low clouds.20 mph93%29.39 "HgN/A
4:30 AM37 °FLight rain. Low clouds.20 mph93%29.39 "HgN/A
4:00 AM37 °FLight rain. Low clouds.20 mph93%29.39 "Hg6 mi
3:30 AM37 °FLight rain. Low clouds.20 mph93%29.39 "HgN/A
2:30 AM39 °FLight rain. Fog.20 mph87%29.42 "Hg3 mi
2:00 AM37 °FLight rain. Low clouds.17 mph93%29.42 "Hg6 mi
1:30 AM39 °FOvercast.22 mph87%29.42 "HgN/A
12:30 AM37 °FOvercast.20 mph93%29.45 "HgN/A
12:00 AM37 °FOvercast.17 mph87%29.45 "HgN/A
Weather by CustomWeather, © 2016

See weather overviewHow to use our weather pages